AAL1162 KIAD-KBOS

Flight info

Callsign AAL1162
Flight time 1h 15m
Altitude 37000
Route JCOBY4 SWANN BROSS Q419 JFK ROBUC3
Aircraft B38M/M-SDE1FGHILORVWXY/HB1

Departure

Time 2026-05-05 01:48
Airport Washington Dulles International Airport (KIAD)

Arrival

Time 2026-05-05 03:04
Airport Boston Logan International Airport (KBOS)
Time Latitude Longitude Altitude Speed Heading
2026-05-05 01:29 38.94606 -77.45274 301 ft 0 kts 181°
2026-05-05 01:38 38.94614 -77.45274 303 ft 2 kts 180°
2026-05-05 01:39 38.94629 -77.45274 302 ft 2 kts 179°
2026-05-05 01:39 38.94644 -77.45275 300 ft 2 kts 180°
2026-05-05 01:39 38.94658 -77.45271 300 ft 2 kts 208°
2026-05-05 01:39 38.94666 -77.45256 301 ft 2 kts 271°
2026-05-05 01:40 38.94666 -77.45255 301 ft 0 kts 271°
2026-05-05 01:43 38.94666 -77.45258 301 ft 2 kts 271°
2026-05-05 01:43 38.94667 -77.45307 299 ft 10 kts 272°
2026-05-05 01:43 38.94669 -77.45423 300 ft 15 kts 270°
2026-05-05 01:44 38.94666 -77.45567 297 ft 14 kts 252°
2026-05-05 01:44 38.94579 -77.45609 296 ft 15 kts 180°
2026-05-05 01:44 38.94469 -77.45610 300 ft 16 kts 180°
2026-05-05 01:44 38.94356 -77.45611 302 ft 16 kts 181°
2026-05-05 01:45 38.94237 -77.45613 300 ft 18 kts 181°
2026-05-05 01:45 38.94109 -77.45616 302 ft 19 kts 180°
2026-05-05 01:45 38.93973 -77.45618 303 ft 20 kts 180°
2026-05-05 01:45 38.93822 -77.45620 301 ft 23 kts 181°
2026-05-05 01:46 38.93708 -77.45608 301 ft 14 kts 151°
2026-05-05 01:46 38.93637 -77.45514 301 ft 15 kts 137°
2026-05-05 01:46 38.93534 -77.45522 299 ft 17 kts 201°
2026-05-05 01:46 38.93417 -77.45583 295 ft 13 kts 208°
2026-05-05 01:47 38.93387 -77.45683 298 ft 13 kts 286°
2026-05-05 01:47 38.93403 -77.45734 300 ft 0 kts 291°
2026-05-05 01:47 38.93404 -77.45736 301 ft 3 kts 291°
2026-05-05 01:47 38.93487 -77.46018 302 ft 73 kts 291°
2026-05-05 01:48 38.93753 -77.46922 310 ft 141 kts 291°
2026-05-05 01:48 38.94173 -77.48276 565 ft 175 kts 291°
2026-05-05 01:48 38.94651 -77.49761 1345 ft 180 kts 286°
2026-05-05 01:48 38.95192 -77.51255 2138 ft 195 kts 296°
2026-05-05 01:49 38.96266 -77.52538 2729 ft 229 kts 329°
2026-05-05 01:49 38.97903 -77.52748 3425 ft 258 kts 10°
2026-05-05 01:49 38.99516 -77.51599 4210 ft 279 kts 41°
2026-05-05 01:49 39.00602 -77.49451 4994 ft 293 kts 71°
2026-05-05 01:50 39.00948 -77.46887 6101 ft 291 kts 87°
2026-05-05 01:50 39.01029 -77.44266 7025 ft 295 kts 84°
2026-05-05 01:50 39.01460 -77.41666 7790 ft 303 kts 62°
2026-05-05 01:50 39.02734 -77.39606 8723 ft 291 kts 32°
2026-05-05 01:51 39.04489 -77.38376 9635 ft 288 kts 19°
2026-05-05 01:51 39.06283 -77.37166 10435 ft 296 kts 22°
2026-05-05 01:51 39.08164 -77.35882 10864 ft 316 kts 22°
2026-05-05 01:51 39.10144 -77.34540 11258 ft 335 kts 22°
2026-05-05 01:52 39.12215 -77.33008 11724 ft 355 kts 33°
2026-05-05 01:52 39.13896 -77.30619 12548 ft 367 kts 55°
2026-05-05 01:52 39.14850 -77.27529 13306 ft 379 kts 77°
2026-05-05 01:52 39.14879 -77.24119 14065 ft 386 kts 100°
2026-05-05 01:53 39.14252 -77.20748 14819 ft 388 kts 103°
2026-05-05 01:53 39.13665 -77.17349 15618 ft 389 kts 102°
2026-05-05 01:53 39.13115 -77.13937 16400 ft 390 kts 102°
2026-05-05 01:53 39.12564 -77.10504 17166 ft 392 kts 102°
2026-05-05 01:54 39.12011 -77.07062 17922 ft 393 kts 103°
2026-05-05 01:54 39.11453 -77.03591 18602 ft 395 kts 103°
2026-05-05 01:54 39.10906 -77.00159 19184 ft 399 kts 101°
2026-05-05 01:54 39.10780 -76.96584 19753 ft 402 kts 88°
2026-05-05 01:55 39.10869 -76.92961 20300 ft 407 kts 89°
2026-05-05 01:55 39.10954 -76.89311 20869 ft 410 kts 89°
2026-05-05 01:55 39.11044 -76.85632 21422 ft 413 kts 88°
2026-05-05 01:55 39.11136 -76.81907 21977 ft 416 kts 88°
2026-05-05 01:56 39.11198 -76.79417 22338 ft 419 kts 88°
2026-05-05 01:56 39.11290 -76.75657 22880 ft 422 kts 88°
2026-05-05 01:56 39.11412 -76.70624 23575 ft 426 kts 88°
2026-05-05 01:56 39.11474 -76.68041 23827 ft 428 kts 88°
2026-05-05 01:57 39.11564 -76.64190 24274 ft 431 kts 88°
2026-05-05 01:57 39.11654 -76.60323 24724 ft 433 kts 88°
2026-05-05 01:57 39.11743 -76.56483 25154 ft 435 kts 88°
2026-05-05 01:57 39.11853 -76.52579 25579 ft 438 kts 84°
2026-05-05 01:58 39.12253 -76.48685 26000 ft 440 kts 82°
2026-05-05 01:58 39.12690 -76.44765 26401 ft 443 kts 81°
2026-05-05 01:58 39.13133 -76.40836 26835 ft 445 kts 81°
2026-05-05 01:58 39.13580 -76.36868 27228 ft 448 kts 81°
2026-05-05 01:59 39.14028 -76.32888 27630 ft 450 kts 81°
2026-05-05 01:59 39.14478 -76.28879 28009 ft 453 kts 81°
2026-05-05 01:59 39.14929 -76.24844 28378 ft 455 kts 81°
2026-05-05 01:59 39.15394 -76.20802 28760 ft 458 kts 81°
2026-05-05 02:00 39.15863 -76.16731 29156 ft 460 kts 81°
2026-05-05 02:00 39.16332 -76.12648 29502 ft 462 kts 81°
2026-05-05 02:00 39.16801 -76.08540 29874 ft 464 kts 81°
2026-05-05 02:00 39.17270 -76.04424 30193 ft 466 kts 81°
2026-05-05 02:01 39.17735 -76.00329 30479 ft 468 kts 81°
2026-05-05 02:01 39.18206 -75.96170 30759 ft 470 kts 81°
2026-05-05 02:01 39.18835 -75.92029 31022 ft 471 kts 71°
2026-05-05 02:01 39.20191 -75.88201 31305 ft 470 kts 55°
2026-05-05 02:02 39.22268 -75.84973 31588 ft 468 kts 41°
2026-05-05 02:02 39.24691 -75.82157 31941 ft 468 kts 40°
2026-05-05 02:02 39.27136 -75.79388 32312 ft 467 kts 39°
2026-05-05 02:02 39.29590 -75.76655 32708 ft 466 kts 38°
2026-05-05 02:03 39.32065 -75.73925 32932 ft 468 kts 38°
2026-05-05 02:03 39.34542 -75.71205 32935 ft 466 kts 38°
2026-05-05 02:03 39.39467 -75.65801 32926 ft 464 kts 38°
2026-05-05 02:04 39.44356 -75.60427 32927 ft 464 kts 38°
2026-05-05 02:04 39.49270 -75.55014 32930 ft 464 kts 38°
2026-05-05 02:05 39.54217 -75.49555 32930 ft 464 kts 38°
2026-05-05 02:05 39.59090 -75.44168 32929 ft 464 kts 38°
2026-05-05 02:06 39.64002 -75.38727 32928 ft 464 kts 38°
2026-05-05 02:06 39.68903 -75.33286 32925 ft 464 kts 38°
2026-05-05 02:07 39.73805 -75.27835 32932 ft 464 kts 38°
2026-05-05 02:07 39.78686 -75.22374 32932 ft 464 kts 41°
2026-05-05 02:08 39.83010 -75.16123 32929 ft 460 kts 46°
2026-05-05 02:08 39.87186 -75.09930 32938 ft 452 kts 46°
2026-05-05 02:09 39.91298 -75.03812 32896 ft 448 kts 46°
2026-05-05 02:09 39.93342 -75.00764 32144 ft 448 kts 46°
2026-05-05 02:09 39.95399 -74.97695 31362 ft 450 kts 47°
2026-05-05 02:10 39.97373 -74.94516 30630 ft 453 kts 54°
2026-05-05 02:10 39.99122 -74.91095 29884 ft 454 kts 54°
2026-05-05 02:10 40.00882 -74.87661 28983 ft 456 kts 54°
2026-05-05 02:10 40.02645 -74.84209 28077 ft 458 kts 54°
2026-05-05 02:11 40.04411 -74.80744 27362 ft 457 kts 54°
2026-05-05 02:11 40.06156 -74.77315 27020 ft 454 kts 54°
2026-05-05 02:11 40.07912 -74.73861 26919 ft 459 kts 54°
2026-05-05 02:11 40.09681 -74.70377 26934 ft 461 kts 54°
2026-05-05 02:12 40.11454 -74.66883 26944 ft 461 kts 54°
2026-05-05 02:12 40.14989 -74.59901 26938 ft 461 kts 54°
2026-05-05 02:12 40.16761 -74.56397 26946 ft 461 kts 54°
2026-05-05 02:13 40.18527 -74.52900 26933 ft 461 kts 54°
2026-05-05 02:13 40.20469 -74.49572 26918 ft 457 kts 42°
2026-05-05 02:13 40.22827 -74.46889 26934 ft 456 kts 38°
2026-05-05 02:13 40.25257 -74.44218 26928 ft 456 kts 37°
2026-05-05 02:14 40.27703 -74.41563 26940 ft 456 kts 37°
2026-05-05 02:14 40.30160 -74.38922 26940 ft 456 kts 37°
2026-05-05 02:14 40.32623 -74.36282 26942 ft 456 kts 37°
2026-05-05 02:14 40.35077 -74.33652 26940 ft 456 kts 37°
2026-05-05 02:15 40.37535 -74.31017 26942 ft 456 kts 37°
2026-05-05 02:15 40.39997 -74.28376 26938 ft 457 kts 37°
2026-05-05 02:15 40.42452 -74.25738 26935 ft 457 kts 37°
2026-05-05 02:15 40.44913 -74.23093 26924 ft 457 kts 37°
2026-05-05 02:16 40.47372 -74.20447 26924 ft 457 kts 37°
2026-05-05 02:16 40.49830 -74.17798 26927 ft 457 kts 37°
2026-05-05 02:16 40.52279 -74.15141 26929 ft 457 kts 39°
2026-05-05 02:16 40.54405 -74.12015 26923 ft 462 kts 54°
2026-05-05 02:17 40.55850 -74.08222 26935 ft 467 kts 68°
2026-05-05 02:17 40.56886 -74.04235 26950 ft 468 kts 69°
2026-05-05 02:17 40.57899 -74.00152 26951 ft 468 kts 70°
2026-05-05 02:17 40.58882 -73.96067 26951 ft 469 kts 70°
2026-05-05 02:18 40.59851 -73.91950 26953 ft 469 kts 71°
2026-05-05 02:18 40.60809 -73.87842 26955 ft 469 kts 71°
2026-05-05 02:18 40.61760 -73.83742 26952 ft 469 kts 71°
2026-05-05 02:18 40.62777 -73.79664 26946 ft 467 kts 64°
2026-05-05 02:19 40.64414 -73.76014 26953 ft 461 kts 49°
2026-05-05 02:19 40.66460 -73.72765 26954 ft 461 kts 47°
2026-05-05 02:19 40.68554 -73.69568 26954 ft 461 kts 46°
2026-05-05 02:19 40.70667 -73.66408 26953 ft 461 kts 45°
2026-05-05 02:20 40.72779 -73.63286 26947 ft 460 kts 45°
2026-05-05 02:20 40.74921 -73.60137 26956 ft 461 kts 45°
2026-05-05 02:20 40.77059 -73.56998 26957 ft 461 kts 45°
2026-05-05 02:20 40.79203 -73.53849 26960 ft 461 kts 45°
2026-05-05 02:21 40.81346 -73.50699 26962 ft 461 kts 45°
2026-05-05 02:21 40.83489 -73.47547 26960 ft 461 kts 45°
2026-05-05 02:21 40.85626 -73.44398 26960 ft 461 kts 45°
2026-05-05 02:21 40.87768 -73.41239 26920 ft 457 kts 45°
2026-05-05 02:22 40.89884 -73.38117 26089 ft 457 kts 45°
2026-05-05 02:22 40.92016 -73.34966 25174 ft 461 kts 45°
2026-05-05 02:22 40.94161 -73.31793 24404 ft 462 kts 45°
2026-05-05 02:22 40.96291 -73.28638 23823 ft 458 kts 45°
2026-05-05 02:23 40.98408 -73.25501 23193 ft 454 kts 45°
2026-05-05 02:23 41.00469 -73.22443 22990 ft 451 kts 45°
2026-05-05 02:23 41.02563 -73.19333 22932 ft 453 kts 45°
2026-05-05 02:23 41.04663 -73.16211 22953 ft 454 kts 45°
2026-05-05 02:24 41.06771 -73.13074 22951 ft 454 kts 45°
2026-05-05 02:24 41.08869 -73.09948 22958 ft 455 kts 45°
2026-05-05 02:24 41.10971 -73.06812 22955 ft 455 kts 45°
2026-05-05 02:24 41.13071 -73.03677 22952 ft 455 kts 45°
2026-05-05 02:25 41.15175 -73.00532 22958 ft 455 kts 45°
2026-05-05 02:25 41.17275 -72.97389 22952 ft 455 kts 45°
2026-05-05 02:25 41.19379 -72.94240 22959 ft 455 kts 45°
2026-05-05 02:25 41.21334 -72.90926 22933 ft 459 kts 57°
2026-05-05 02:26 41.22805 -72.87139 22957 ft 461 kts 60°
2026-05-05 02:26 41.24275 -72.83353 22952 ft 462 kts 60°
2026-05-05 02:26 41.25737 -72.79553 22957 ft 462 kts 60°
2026-05-05 02:26 41.27194 -72.75748 22956 ft 462 kts 60°
2026-05-05 02:27 41.28643 -72.71951 22834 ft 456 kts 60°
2026-05-05 02:27 41.30079 -72.68186 21955 ft 457 kts 60°
2026-05-05 02:27 41.31511 -72.64424 21347 ft 454 kts 60°
2026-05-05 02:27 41.32925 -72.60706 21058 ft 448 kts 60°
2026-05-05 02:28 41.34319 -72.57037 20963 ft 451 kts 60°
2026-05-05 02:28 41.35734 -72.53307 20956 ft 452 kts 60°
2026-05-05 02:28 41.37147 -72.49575 20964 ft 445 kts 60°
2026-05-05 02:28 41.38511 -72.45971 20969 ft 427 kts 60°
2026-05-05 02:29 41.39848 -72.42433 20978 ft 419 kts 60°
2026-05-05 02:29 41.41138 -72.39017 20967 ft 418 kts 60°
2026-05-05 02:29 41.42444 -72.35550 20958 ft 418 kts 60°
2026-05-05 02:29 41.43741 -72.32108 20905 ft 411 kts 60°
2026-05-05 02:30 41.45013 -72.28725 20624 ft 404 kts 60°
2026-05-05 02:30 41.46265 -72.25393 20209 ft 401 kts 60°
2026-05-05 02:30 41.47505 -72.22087 19931 ft 395 kts 61°
2026-05-05 02:30 41.48701 -72.18832 19749 ft 386 kts 61°
2026-05-05 02:31 41.49866 -72.15653 19578 ft 377 kts 61°
2026-05-05 02:31 41.51008 -72.12539 19323 ft 372 kts 61°
2026-05-05 02:31 41.52140 -72.09449 18977 ft 369 kts 61°
2026-05-05 02:31 41.53253 -72.06408 18815 ft 360 kts 61°
2026-05-05 02:32 41.54343 -72.03425 18550 ft 356 kts 61°
2026-05-05 02:32 41.55423 -72.00451 18175 ft 355 kts 63°
2026-05-05 02:32 41.56353 -71.97397 17782 ft 354 kts 66°
2026-05-05 02:32 41.57267 -71.94355 17429 ft 352 kts 66°
2026-05-05 02:33 41.58173 -71.91370 17111 ft 349 kts 65°
2026-05-05 02:33 41.59084 -71.88381 17040 ft 348 kts 65°
2026-05-05 02:33 41.59983 -71.85366 17046 ft 350 kts 66°
2026-05-05 02:33 41.60886 -71.82307 17044 ft 350 kts 66°
2026-05-05 02:34 41.61766 -71.79325 17033 ft 348 kts 66°
2026-05-05 02:34 41.62652 -71.76324 16648 ft 348 kts 66°
2026-05-05 02:34 41.63535 -71.73329 16338 ft 345 kts 66°
2026-05-05 02:34 41.64409 -71.70365 15893 ft 342 kts 66°
2026-05-05 02:35 41.65278 -71.67410 15446 ft 340 kts 66°
2026-05-05 02:35 41.66139 -71.64482 14999 ft 337 kts 66°
2026-05-05 02:35 41.66992 -71.61579 14564 ft 334 kts 66°
2026-05-05 02:35 41.67839 -71.58693 14141 ft 332 kts 66°
2026-05-05 02:36 41.68677 -71.55830 13702 ft 329 kts 66°
2026-05-05 02:36 41.69509 -71.52987 13230 ft 326 kts 66°
2026-05-05 02:36 41.70329 -71.50178 12786 ft 323 kts 67°
2026-05-05 02:36 41.71143 -71.47391 12336 ft 320 kts 67°
2026-05-05 02:37 41.71947 -71.44636 11885 ft 318 kts 67°
2026-05-05 02:37 41.72889 -71.41936 11316 ft 322 kts 57°
2026-05-05 02:37 41.74027 -71.39374 11117 ft 319 kts 58°
2026-05-05 02:37 41.75144 -71.36785 11055 ft 321 kts 58°
2026-05-05 02:38 41.76247 -71.34190 11042 ft 318 kts 58°
2026-05-05 02:38 41.77320 -71.31638 11046 ft 312 kts 59°
2026-05-05 02:38 41.78379 -71.29111 11043 ft 311 kts 58°
2026-05-05 02:38 41.79452 -71.26602 11046 ft 310 kts 58°
2026-05-05 02:39 41.80526 -71.24089 11041 ft 311 kts 58°
2026-05-05 02:39 41.81582 -71.21611 11044 ft 311 kts 58°
2026-05-05 02:39 41.82652 -71.19095 11046 ft 311 kts 58°
2026-05-05 02:39 41.83724 -71.16576 11046 ft 311 kts 58°
2026-05-05 02:40 41.84794 -71.14055 11047 ft 311 kts 58°
2026-05-05 02:40 41.85870 -71.11544 11048 ft 311 kts 58°
2026-05-05 02:40 41.86956 -71.09039 11050 ft 311 kts 58°
2026-05-05 02:40 41.88042 -71.06529 11052 ft 311 kts 58°
2026-05-05 02:41 41.89127 -71.04017 11035 ft 309 kts 58°
2026-05-05 02:41 41.90202 -71.01525 10694 ft 309 kts 58°
2026-05-05 02:41 41.91273 -70.99039 10399 ft 306 kts 58°
2026-05-05 02:41 41.92336 -70.96570 10093 ft 305 kts 58°
2026-05-05 02:42 41.93395 -70.94111 9786 ft 303 kts 58°
2026-05-05 02:42 41.94447 -70.91664 9443 ft 301 kts 58°
2026-05-05 02:42 41.95493 -70.89228 9077 ft 301 kts 58°
2026-05-05 02:42 41.96535 -70.86803 8755 ft 299 kts 58°
2026-05-05 02:43 41.97222 -70.85201 8516 ft 299 kts 58°
2026-05-05 02:43 41.98256 -70.82789 8208 ft 297 kts 58°
2026-05-05 02:43 41.99282 -70.80393 8060 ft 295 kts 58°
2026-05-05 02:43 42.00312 -70.77987 8048 ft 297 kts 58°
2026-05-05 02:44 42.01421 -70.75653 8019 ft 295 kts 47°
2026-05-05 02:44 42.02795 -70.73610 8033 ft 295 kts 45°
2026-05-05 02:44 42.04176 -70.71576 8038 ft 295 kts 45°
2026-05-05 02:44 42.05554 -70.69531 8031 ft 295 kts 45°
2026-05-05 02:45 42.07372 -70.66816 8035 ft 295 kts 45°
2026-05-05 02:45 42.08298 -70.65430 8037 ft 295 kts 45°
2026-05-05 02:45 42.09654 -70.63400 8028 ft 294 kts 45°
2026-05-05 02:45 42.11252 -70.61773 7681 ft 287 kts 19°
2026-05-05 02:46 42.13150 -70.61071 7373 ft 281 kts
2026-05-05 02:46 42.15066 -70.60495 6997 ft 282 kts
2026-05-05 02:46 42.16967 -70.59936 6727 ft 279 kts
2026-05-05 02:46 42.18869 -70.59391 6418 ft 278 kts
2026-05-05 02:47 42.20761 -70.58856 6070 ft 278 kts
2026-05-05 02:47 42.22647 -70.58325 5744 ft 276 kts
2026-05-05 02:47 42.24533 -70.57798 5379 ft 277 kts
2026-05-05 02:47 42.26415 -70.57272 5092 ft 275 kts
2026-05-05 02:48 42.28283 -70.56749 5018 ft 275 kts
2026-05-05 02:48 42.30169 -70.56224 5011 ft 277 kts
2026-05-05 02:48 42.32045 -70.56221 4999 ft 265 kts 340°
2026-05-05 02:48 42.33642 -70.57320 5014 ft 256 kts 316°
2026-05-05 02:49 42.34970 -70.58905 5008 ft 255 kts 314°
2026-05-05 02:49 42.36278 -70.60524 5002 ft 255 kts 313°
2026-05-05 02:49 42.37568 -70.62161 5004 ft 254 kts 313°
2026-05-05 02:49 42.38840 -70.63796 4990 ft 256 kts 312°
2026-05-05 02:50 42.40104 -70.65435 4992 ft 245 kts 312°
2026-05-05 02:50 42.41298 -70.66993 4989 ft 232 kts 311°
2026-05-05 02:50 42.42423 -70.68468 4985 ft 218 kts 311°
2026-05-05 02:50 42.43490 -70.69870 4987 ft 213 kts 311°
2026-05-05 02:51 42.44551 -70.71267 5040 ft 213 kts 311°
2026-05-05 02:51 42.45613 -70.72666 5010 ft 213 kts 311°
2026-05-05 02:51 42.46676 -70.74067 4996 ft 214 kts 311°
2026-05-05 02:51 42.47741 -70.75473 4995 ft 214 kts 311°
2026-05-05 02:52 42.48807 -70.76880 4992 ft 214 kts 311°
2026-05-05 02:52 42.49872 -70.78287 4989 ft 214 kts 310°
2026-05-05 02:52 42.50936 -70.79692 4993 ft 213 kts 311°
2026-05-05 02:52 42.52098 -70.80931 4790 ft 218 kts 330°
2026-05-05 02:53 42.53613 -70.81323 4474 ft 230 kts 357°
2026-05-05 02:53 42.55195 -70.80809 4141 ft 238 kts 14°
2026-05-05 02:53 42.56762 -70.80057 3814 ft 240 kts 14°
2026-05-05 02:53 42.58335 -70.79292 3526 ft 240 kts 14°
2026-05-05 02:54 42.59908 -70.78523 3229 ft 241 kts 14°
2026-05-05 02:54 42.61462 -70.77760 3010 ft 239 kts 15°
2026-05-05 02:54 42.63025 -70.76982 2956 ft 240 kts 15°
2026-05-05 02:54 42.64586 -70.76178 2987 ft 240 kts 15°
2026-05-05 02:55 42.66190 -70.75835 2962 ft 228 kts 345°
2026-05-05 02:55 42.67582 -70.76619 2969 ft 211 kts 311°
2026-05-05 02:55 42.68341 -70.78214 2994 ft 197 kts 278°
2026-05-05 02:55 42.68245 -70.80005 2990 ft 191 kts 246°
2026-05-05 02:56 42.67592 -70.81578 3015 ft 192 kts 236°
2026-05-05 02:56 42.66604 -70.82803 2979 ft 195 kts 216°
2026-05-05 02:56 42.65411 -70.83712 2997 ft 198 kts 213°
2026-05-05 02:56 42.64198 -70.84607 2995 ft 198 kts 213°
2026-05-05 02:57 42.63005 -70.85523 3005 ft 197 kts 214°
2026-05-05 02:57 42.61830 -70.86429 2997 ft 196 kts 214°
2026-05-05 02:57 42.60628 -70.87362 2973 ft 196 kts 214°
2026-05-05 02:57 42.59439 -70.88268 2992 ft 196 kts 214°
2026-05-05 02:58 42.58252 -70.89171 2995 ft 196 kts 213°
2026-05-05 02:58 42.57088 -70.90075 2993 ft 196 kts 214°
2026-05-05 02:58 42.55894 -70.90988 2989 ft 197 kts 212°
2026-05-05 02:58 42.54626 -70.91713 2994 ft 199 kts 205°
2026-05-05 02:59 42.53315 -70.92339 3000 ft 200 kts 204°
2026-05-05 02:59 42.52004 -70.92970 2969 ft 200 kts 205°
2026-05-05 02:59 42.50703 -70.93600 2754 ft 198 kts 206°
2026-05-05 02:59 42.49442 -70.94213 2543 ft 183 kts 206°
2026-05-05 03:00 42.48327 -70.94752 2336 ft 158 kts 206°
2026-05-05 03:00 42.47368 -70.95219 2131 ft 135 kts 207°
2026-05-05 03:00 42.46530 -70.95630 1949 ft 125 kts 208°
2026-05-05 03:00 42.45709 -70.96033 1789 ft 126 kts 208°
2026-05-05 03:01 42.44887 -70.96431 1603 ft 123 kts 208°
2026-05-05 03:01 42.44099 -70.96815 1435 ft 119 kts 206°
2026-05-05 03:01 42.43321 -70.97194 1276 ft 120 kts 206°
2026-05-05 03:01 42.42527 -70.97579 1114 ft 122 kts 206°
2026-05-05 03:02 42.41723 -70.97968 950 ft 124 kts 203°
2026-05-05 03:02 42.40897 -70.98381 789 ft 129 kts 205°
2026-05-05 03:02 42.40040 -70.98788 629 ft 133 kts 200°
2026-05-05 03:02 42.39163 -70.99223 440 ft 134 kts 202°
2026-05-05 03:03 42.38281 -70.99649 251 ft 134 kts 201°
2026-05-05 03:03 42.37414 -71.00064 66 ft 133 kts 201°
2026-05-05 03:03 42.36588 -71.00464 19 ft 111 kts 199°
2026-05-05 03:03 42.36066 -71.00715 16 ft 59 kts 199°
2026-05-05 03:04 42.35743 -71.00871 16 ft 35 kts 200°
2026-05-05 03:04 42.35630 -71.00980 18 ft 16 kts 257°
2026-05-05 03:04 42.35651 -71.01130 20 ft 17 kts 295°
2026-05-05 03:04 42.35721 -71.01261 23 ft 17 kts 305°
2026-05-05 03:05 42.35767 -71.01404 27 ft 16 kts 289°
2026-05-05 03:05 42.35802 -71.01538 27 ft 13 kts 294°
2026-05-05 03:05 42.35873 -71.01578 27 ft 12 kts 329°
2026-05-05 03:05 42.35900 -71.01682 28 ft 13 kts 280°
2026-05-05 03:06 42.35921 -71.01811 27 ft 16 kts 288°
2026-05-05 03:06 42.35954 -71.01896 28 ft 5 kts 318°
2026-05-05 03:06 42.35982 -71.01893 25 ft 5 kts 37°
2026-05-05 03:06 42.36004 -71.01869 27 ft 3 kts 37°
2026-05-05 03:07 42.36010 -71.01863 27 ft 0 kts 37°